Regional Weather Roundup
Issued by NWS

Home | Current Version | Previous Version | Graphics & Text | Print | Product List | Glossary On
Versions: 1 2 3 4 5 6 7 8 9 10 11 12 13 14 15 16 17 18 19 20 21 22 23 24 25 26 27 28 29 30 31 32 33 34 35 36 37 38 39 40 41 42 43 44 45 46 47 48 49 50
000
ASUS43 KIND 161959
RWRIN

WEATHER ROUNDUP FOR INDIANA
NATIONAL WEATHER SERVICE INDIANAPOLIS IN
300 PM EST SAT DEC 16 2017

NOTE: "FAIR" INDICATES FEW OR NO CLOUDS BELOW 12,000 FEET WITH NO
SIGNIFICANT WEATHER AND/OR OBSTRUCTIONS TO VISIBILITY.

* - STATION DOES NOT REPORT WEATHER SUCH AS PRECIPITATION OR FOG.

+ - STATION NOT QUALITY CONTROLLED BY THE NATIONAL WEATHER SERVICE.
    USE DATA WITH CAUTION...ESPECIALLY DEWPOINT AND RELATIVE
    HUMIDITY OBSERVATIONS.

INZ001>003-010>013-019-020-162100-
NORTHWEST INDIANA

CITY           SKY/WX    TMP DP  RH WIND       PRES   REMARKS
GARY /AIRPORT/ MOSUNNY   48  23  37 S10       29.91S
KNOX *+        SUNNY     45  30  57 SW6       29.92S
MICHIGAN CITY+ SUNNY     43  28  56 SW7       29.92S
MONTICELLO +   SUNNY     48  25  40 SW12G23   29.93S
RENSSELAER +   SUNNY     50  16  25 SW14      29.93R

$$

LMZ046-743>745-162100-
SOUTHERN LAKE MICHIGAN

STATION/POSITION TIME  TEMP    WIND        PRES    WAVE
                       AIR SEA DIR/SP/G            HT
                 (UTC) (F)     (DEG/KT/KT) (MB)    (FT)
BURNS HARBOR     1940   46     220/ 11/ 15 1013.2S
MICHIGAN CITY    1930   43     190/  8/  9   N/A

$$

INZ004-005-014>016-021>024-162100-
NORTH CENTRAL INDIANA

CITY           SKY/WX    TMP DP  RH WIND       PRES   REMARKS
ELKHART        SUNNY     41  27  56 S8        29.93S
GOSHEN         SUNNY     41  28  60 SW8       29.93S
PERU/GRISSOM   SUNNY     48  27  44 SW17      29.93F
SOUTH BEND     SUNNY     40  28  62 S8        29.93S WCI  34
WARSAW +       SUNNY     43  28  56 SW6       29.94S

$$

INZ006>009-017-018-025>027-162100-
NORTHEAST INDIANA

CITY           SKY/WX    TMP DP  RH WIND       PRES   REMARKS
AUBURN +       SUNNY     43  28  56 W7        29.96S
FORT WAYNE     MOSUNNY   46  31  55 SW12      29.96R

$$

INZ028-029-035-036-043>045-051>053-162100-
WEST CENTRAL INDIANA

CITY           SKY/WX    TMP DP  RH WIND       PRES   REMARKS
CRAWFORDSVL +  SUNNY     47  29  49 SW16G23   29.95
GREENCASTLE +  SUNNY     50  30  46 SW8       29.98S
LAFAYETTE      SUNNY     49  28  44 SW13G21   29.94F
TERRE HAUTE    SUNNY     52  29  41 SW14      29.98F

$$

INZ030>032-037>040-046>048-054>057-064-065-162100-
CENTRAL INDIANA

CITY           SKY/WX    TMP DP  RH WIND       PRES   REMARKS
COLUMBUS       SUNNY     50  21  32 S16       30.02S
FRANKFORT +    SUNNY     51  30  44 SW15      29.96S
GREENWOOD *+   SUNNY     55  29  38 SW12G20   29.99S
INDIANAPOLIS   SUNNY     50  29  44 SW14      29.98F
-EAGLE CREEK   SUNNY     50  28  42 SW13G18   29.96F
KOKOMO +       SUNNY     48  28  46 SW16      29.95F
MT COMFORT *+  SUNNY     52  34  50 SW14G20   29.97F
SHELBYVILLE    SUNNY     52  25  35 SW16G25   29.99S

$$

INZ033-034-041-042-049-050-058-059-162100-
EAST CENTRAL INDIANA

CITY           SKY/WX    TMP DP  RH WIND       PRES   REMARKS
MUNCIE         SUNNY     50  26  39 SW15      29.95F
RICHMOND +     SUNNY     46  28  49 SW17G24   29.99F

$$

INZ060-061-067>069-081>083-085>088-162100-
SOUTHWEST INDIANA

CITY           SKY/WX    TMP DP  RH WIND       PRES   REMARKS
EVANSVILLE     SUNNY     52  29  41 SW21      30.07F
HUNTINGBURG +  SUNNY     51  31  46 S15G23    30.07F

$$

INZ062-063-066-070>080-084-089>092-162100-
SOUTH CENTRAL AND SOUTHEAST INDIANA

CITY           SKY/WX    TMP DP  RH WIND       PRES   REMARKS
BLOOMINGTON    SUNNY     51  27  39 SW15G25   30.00S
MADISON *+     SUNNY     50  28  43 S13       30.07S
SEYMOUR +      SUNNY     54  28  37 SW15G23   30.03F

$$





USA.gov is the U.S. government's official web portal to all federal, state and local government web resources and services.